AirNav   Everest Fuels
 
 743 users online  

25SC Mountain Ridge Airport
Greenville, South Carolina, USA

GOING TO GREENVILLE?


FAA INFORMATION EFFECTIVE 11 AUGUST 2022

Location

FAA Identifier: 25SC
Lat/Long: 34-57-38.3000N 082-20-14.6000W
34-57.638333N 082-20.243333W
34.9606389,-82.3373889
(estimated)
Elevation: 980 ft. / 299 m (estimated)
From city: 9 miles NE of GREENVILLE, SC
Time zone: UTC -4 (UTC -5 during Standard Time)
Zip code: 29687

Airport Operations

Airport use: Private use. Permission required prior to landing
Activation date: 04/2005
Control tower: no
ARTCC: ATLANTA CENTER
FSS: ANDERSON FLIGHT SERVICE STATION
Attendance: UNATNDD
Segmented circle: no

Airport Communications

WX ASOS at GMU (7 nm S): 127.075 (864-239-0014)
WX ASOS at GSP (7 nm SE): 134.25 (864-879-0614)
WX AWOS-3 at GYH (12 nm S): 127.325 (864-277-5674)
WX AWOS-3 at SPA (19 nm E): 133.925 (864-587-2529)

Nearby radio navigation aids

VOR radial/distance  VOR name  Freq  Var
SPAr260/20.6SPARTANBURG VORTAC115.7002W
SUGr189/27.0SUGARLOAF MOUNTAIN VORTAC112.2002W
ELWr034/39.3ELECTRIC CITY VORTAC108.6000E

 
NDB name  Hdg/Dist  Freq  Var  ID
JUDKY008/10.852105WGM --. --
BROAD RIVER168/19.837907WBRA -... .-. .-
UNION COUNTY302/38.032606WUOT ..- --- -

Airport Services

Runway Information

Runway 5/23

Dimensions: 1950 x 60 ft. / 594 x 18 m
Surface: asphalt
RUNWAY 5  RUNWAY 23
Traffic pattern: leftleft

Airport Ownership and Management from official FAA records

Ownership: Privately-owned
Owner: KAREN E. MCCLARAN
400 EAST DARBY ROAD
TAYLORS, SC 29687
Phone 864-244-5284
Manager: KAREN E. MCCLARAN
400 EAST DARBY ROAD
TAYLORS, SC 29687
Phone 864-244-5284

Additional Remarks

FOR CD CTC ATLANTA ARTCC AT 770-210-7692.

Instrument Procedures

There are no published instrument procedures at 25SC.

Some nearby airports with instrument procedures:

KGMU - Greenville Downtown Airport (7 nm S)
KGSP - Greenville Spartanburg International Airport (7 nm SE)
KGYH - Donaldson Field Airport (12 nm S)
KSPA - Spartanburg Downtown Memorial Airport/Simpson Field (19 nm E)
KLQK - Pickens County Airport (20 nm SW)
 
Loc | Ops | Rwys | IFR | FBO | Links
Com | Nav | Svcs | Stats | Notes
Area around 25SC (Mountain Ridge Airport)
 
Road maps at: MapQuest Bing Google
 
Aerial photo
No photo
 
Sectional chart

 
Airport distance calculator
Flying to Mountain Ridge Airport? Find the distance to fly.

From to 25SC

Sunrise and sunset
Times for 13-Aug-2022
 Local
(UTC-4)
 Zulu
(UTC)
Morning civil twilight06:2210:22
Sunrise06:4910:49
Sunset20:1900:19
Evening civil twilight20:4600:46

Current date and time
Zulu (UTC)  14-Aug-2022 03:31:49
Local (UTC-4)  13-Aug-2022 23:31:49
 
METAR
KGMU 
7nm S 
140253Z AUTO 07003KT 10SM BKN090 26/14 A3010 RMK AO2 SLP181 T02560144 51007
KGSP 
7nm SE 
140253Z 04003KT 10SM CLR 20/16 A3009 RMK AO2 SLP179 T02000161 50006
KGYH 
12nm S 
140315Z AUTO 00000KT 10SM BKN090 23/16 A3010 RMK A02 T02350158
TAF
KGMU 
7nm S 
132320Z 1400/1424 07004KT P6SM SCT080 FM140200 03003KT P6SM SCT070 FM141500 18005KT P6SM FEW250 FM141900 23006KT P6SM FEW070 SCT250
KGSP 
7nm SE 
132320Z 1400/1424 08004KT P6SM FEW080 FM140200 05003KT P6SM SCT080 FM141500 20004KT P6SM FEW250 FM141900 21006KT P6SM FEW070 SCT250
NOTAMs
Click for the latest NOTAMs
NOTAMs are issued by the DoD/FAA and will open in a separate window not controlled by AirNav.

 

 
 

Would you like to see your business listed on this page?

 If your business provides an interesting product or service to pilots, flight crews, aircraft, or users of the Mountain Ridge Airport, you should consider listing it here.  To start the listing process, click on the button below
 
Add a business
 

Other Pages about Mountain Ridge Airport

Update a link
 
Copyright © AirNav, LLC. All rights reserved. Privacy Policy  Contact